Flag for Canada Weather past 2 weeks in Waterloo, Ontario, Canada

45 °F


Feels Like: 39 °F
Forecast: 22 / 42 °F
Wind: 12 mph from Southeast

Location: Waterloo Well

Current Time: Nov 25, 2015 at 1:32:34 PM

Latest Report: Nov 25, 2015 at 1:00 PM

Visibility: 9 mi

Pressure: 30.51 "Hg

Humidity: 66%

Dew point: 34 °F

Location of WaterlooLocation

Historic Weather in Waterloo — Graph


Waterloo temperature yesterday

Maximum temperature yesterday: 39 °F (at 1:00 PM)
Minimum temperature yesterday: 25 °F (at 11:00 PM)
Average temperature yesterday: 32 °F

Past Weeks' High & Low Weather Summary

High59 °F (Nov 16, 2:00 PM)100% (Nov 10, 1:02 PM)30.58 "Hg (Nov 10, 1:02 PM)
Low7 °F (Nov 23, 5:00 AM)45% (Nov 20, 12:00 PM)29.31 "Hg (Nov 12, 12:00 PM)
Average39 °F83%30.03 "Hg
* Reported Nov 10 12:00 Noon — Nov 25 12:00 Noon, Waterloo, Weather by CustomWeather, © 2015

Note: Actual official high and low records may vary slightly from our data, if they occured in-between our weather recording intervals... More about our weather records


Waterloo weather history for previous 24 hours

Time TempWeatherWind HumidityBarometerVisibility
12:00 PM
Wed, Nov 25
43 °FSunny.13 mph71%30.53 "Hg9 mi
11:00 AM39 °FSunny.9 mph87%30.56 "Hg9 mi
10:00 AM34 °FFog.7 mph100%30.57 "Hg4 mi
9:00 AM30 °FIce fog.5 mph100%30.58 "Hg2 mi
8:57 AM28 °FIce fog.5 mph100%30.57 "Hg2 mi
8:00 AM25 °FIce fog.2 mph100%30.56 "Hg3 mi
7:03 AM23 °FIce fog.No wind93%30.55 "Hg1 mi
7:02 AM23 °FIce fog.No wind93%30.55 "Hg1 mi
6:00 AM21 °FIce fog.No wind93%30.55 "Hg0 mi
5:00 AM23 °FIce fog.2 mph100%30.54 "Hg0 mi
4:00 AM23 °FIce fog.No wind100%30.52 "Hg0 mi
3:00 AM23 °FIce fog.No wind100%30.52 "Hg0 mi
2:00 AM25 °FIce fog.No wind93%30.50 "Hg0 mi
1:00 AM23 °FIce fog.No wind100%30.48 "Hg0 mi
12:00 AM25 °FIce fog.No wind100%30.47 "Hg0 mi
11:00 PM
Tue, Nov 24
25 °FHeavy snow. Passing clouds.2 mph93%30.47 "Hg0 mi
10:02 PM28 °FSnow. Clear.No wind100%30.47 "Hg1 mi
9:02 PM28 °FIce fog.No wind100%30.45 "Hg2 mi
8:00 PM32 °FIce fog.3 mph93%30.44 "Hg4 mi
7:00 PM34 °FPassing clouds.6 mph93%30.42 "Hg7 mi
6:00 PM36 °FOvercast.7 mph87%30.41 "Hg8 mi
5:00 PM36 °FOvercast.7 mph87%30.39 "Hg9 mi
4:00 PM37 °FOvercast.8 mph81%30.37 "Hg9 mi
3:00 PM37 °FBroken clouds.12 mph81%30.35 "Hg9 mi
2:47 PM37 °FCloudy.12 mph81%30.34 "Hg9 mi
2:00 PM37 °FPartly sunny.12 mph75%30.33 "Hg9 mi
1:00 PM39 °FPartly sunny.12 mph70%30.32 "Hg9 mi
Weather by CustomWeather, © 2015

See weather overviewHow to use our weather pages